Weather in Altynivka

Ukraine / Sumi District     51°27′13″N   33°11′24″E
temp.,
°C
wind,
m/s
gust,
m/s
humid.,
%
clouds,
%
prec.,
mm/h
press.,
hPa
HPBL,
m
17 april, sat
sat1700:00+5se339261 0.0 101657
03:00+4se349563 0.0 1016108
06:00+2se34915 0.0 101882
09:00+6se347312 0.0 1019623
12:00+9se346085 0.0 10181309
15:00+10sse335494 0.1 10181484
18:00+9sw3362100 0.0 1018778
21:00+6wsw3579100 0.0 1018106
18 april, sun
sun1800:00+6wsw2579100 0.0 1017168
03:00+5wsw2480100 0.1 1017166
06:00+4ssw3594100 3.3 1016680
09:00+4s4797100 9.7 1016564
12:00+4se3596100 3.1 1017669
15:00+4e4696100 4.0 1017534
18:00+5ene3588100 0.1 1018545
21:00+5n118623 0.1 101910
19 april, mon
mon1900:00+3nne228844 0.0 101815
03:00+3nnw23935 0.0 101834
06:00+2n359715 0.0 1018101
09:00+6n478699 0.0 1018596
12:00+7n3686100 0.1 1018607
15:00+10nne567199 0.3 10171150
18:00+9ne467331 0.1 1017938
21:00+7nne3791100 0.3 1017263
20 april, tue
tue2000:00+6ne61093100 0.2 1016389
03:00+5ne5994100 0.2 1015390
06:00+5ne4893100 0.0 1014342
09:00+8ene5783100 0.0 1012519
12:00+9ne5877100 0.1 1010660
15:00+13ne71064100 0.4 10051460
18:00+9ne81387100 1.1 1002861
21:00+7nne81290100 3.6 10001029
21 april, wed
wed2100:00+4nnw81396100 0.8 998773
03:00+4wnw81296100 1.1 998862
06:00+5wnw81596100 0.1 10011106
09:00+5w81394100 0.4 1005966
12:00+6w71190100 0.1 1009809
15:00+8wsw5876100 0.1 10111111
18:00+8wsw5972100 0.1 1014768
21:00+7sw3674100 0.1 1016134